Flag for Germany Weather past 2 weeks in Nürburg, Rhineland-Palatinate, Germany

Now
66 °F

Partly sunny.


Feels Like: 66 °F
Forecast: 60 / 74 °F
Wind: 10 mph from Northeast

Location: Buechel

Current Time: Jul 23, 2014 at 9:50:24 AM

Latest Report: Jul 23, 2014 at 7:20 AM


Visibility: N/A

Pressure: 30.07 "Hg

Humidity: 73%

Dew point: 57 °F

Location of NürburgLocation

Historic Weather in Nürburg — Graph

°F

Nürburg temperature yesterday

Maximum temperature yesterday: 75 °F (at 2:20 PM)
Minimum temperature yesterday: 63 °F (at 12:20 AM)
Average temperature yesterday: 68 °F

Past Weeks' High & Low Weather Summary

 TemperatureHumidityPressure
High86 °F (Jul 18, 4:20 PM)100% (Jul 9, 1:20 AM)30.21 "Hg (Jul 9, 1:20 AM)
Low50 °F (Jul 9, 12:20 AM)29% (Jul 18, 5:20 PM)29.71 "Hg (Jul 9, 4:20 PM)
Average66 °F71%29.99 "Hg
* Reported Jul 8 7:20 AM — Jul 23 7:20 AM, Nürburg, Weather by CustomWeather, © 2014

Note: Actual official high and low records may vary slightly from our data, if they occured in-between our weather recording intervals... More about our weather records

Advertising

Nürburg weather history for previous 24 hours

 ConditionsComfort  
Time TempWeatherWind HumidityBarometerVisibility
7:20 AM
Jul 23
66 °FPartly sunny.10 mph73%30.07 "HgN/A
6:20 AM64 °FPassing clouds.9 mph78%30.07 "HgN/A
5:20 AM64 °FPassing clouds.9 mph78%30.07 "HgN/A
4:20 AM64 °FPassing clouds.8 mph83%30.09 "HgN/A
3:20 AM66 °FMild.7 mph78%30.09 "Hg5 mi
2:20 AM66 °FMild.8 mph83%30.09 "Hg5 mi
1:20 AM66 °FMild.5 mph83%30.09 "Hg5 mi
6:20 PM
Jul 22
75 °FPartly sunny.12 mph65%30.04 "HgN/A
5:20 PM75 °FPartly sunny.12 mph65%30.04 "HgN/A
4:20 PM75 °FBroken clouds.10 mph65%30.07 "HgN/A
3:20 PM75 °FBroken clouds.8 mph65%30.04 "HgN/A
2:20 PM75 °FBroken clouds.8 mph61%30.04 "HgN/A
1:20 PM73 °FBroken clouds.9 mph69%30.04 "Hg5 mi
12:47 PM72 °FBroken clouds.10 mph73%30.04 "Hg5 mi
12:20 PM72 °FBroken clouds.12 mph73%30.07 "Hg4 mi
11:20 AM68 °FPartly sunny.9 mph83%30.04 "Hg4 mi
10:20 AM66 °FFog.12 mph88%30.04 "Hg3 mi
9:47 AM66 °FFog.8 mph88%30.04 "Hg2 mi
9:20 AM64 °FFog.8 mph94%30.01 "Hg2 mi
Weather by CustomWeather, © 2014

See weather overviewHow to use our weather pages